Date,TemperatureHighF,TemperatureAvgF,TemperatureLowF,DewpointHighF,DewpointAvgF,DewpointLowF,HumidityHigh,HumidityAvg,HumidityLow,PressureMaxIn,PressureMinIn,WindSpeedMaxMPH,WindSpeedAvgMPH,GustSpeedMaxMPH,PrecipitationSumIn
2013-1-1,65.0,61.3,57.0,-99.9,-99.9,-99.9,0,0,100,30.13,29.96,21,10,24,0.00
2013-1-2,56.0,50.6,46.0,-99.9,-99.9,-99.9,0,0,100,30.20,30.01,27,-1,30,0.00
2013-1-3,47.0,44.6,42.0,-99.9,-99.9,-99.9,0,0,100,30.37,30.19,28,22,32,0.00
2013-1-4,53.0,47.4,42.0,-99.9,-99.9,-99.9,0,0,100,30.45,30.34,25,15,28,0.00
2013-1-5,51.0,49.6,47.0,-99.9,-99.9,-99.9,0,0,100,30.38,30.26,20,14,22,0.00
2013-1-6,51.0,49.4,47.0,-99.9,-99.9,-99.9,0,0,100,30.29,30.19,26,16,30,0.00
2013-1-7,55.0,49.7,44.0,-99.9,-99.9,-99.9,0,0,100,30.33,30.21,22,-23,26,0.00
2013-1-8,61.0,55.3,51.0,-99.9,-99.9,-99.9,0,0,100,30.27,30.16,22,14,27,0.00
2013-1-9,65.0,60.6,56.0,-99.9,-99.9,-99.9,0,0,100,30.26,30.17,22,15,25,0.00
2013-1-10,65.0,64.0,62.0,-99.9,-99.9,-99.9,0,0,100,30.25,30.04,33,20,37,0.00
2013-1-11,66.0,64.4,61.0,-99.9,-99.9,-99.9,0,0,100,30.17,30.08,18,9,22,0.00
2013-1-12,67.0,64.8,63.0,-99.9,-99.9,-99.9,0,0,100,30.13,30.00,16,11,18,0.00
2013-1-13,67.0,66.1,65.0,-99.9,-99.9,-99.9,0,0,100,30.03,29.96,18,13,20,0.00
2013-1-14,67.0,58.1,51.0,-99.9,-99.9,-99.9,0,0,100,30.13,30.06,27,15,32,0.00
2013-1-15,71.0,59.3,52.0,-99.9,-99.9,-99.9,0,0,100,30.09,29.95,22,11,28,0.00
2013-1-16,68.0,53.0,45.0,-99.9,-99.9,-99.9,0,0,100,30.08,29.96,21,14,25,0.00
2013-1-17,51.0,44.8,39.0,-99.9,-99.9,-99.9,0,0,100,30.37,30.07,36,23,43,0.00
2013-1-18,55.0,48.8,43.0,-99.9,-99.9,-99.9,0,0,100,30.53,30.37,33,19,38,0.00
2013-1-19,57.0,52.8,48.0,-99.9,-99.9,-99.9,0,0,100,30.41,30.27,15,0,18,0.00
2013-1-20,63.0,54.8,51.0,-99.9,-99.9,-99.9,0,0,100,30.30,30.16,11,-8,12,0.00
2013-1-21,61.0,55.4,51.0,-99.9,-99.9,-99.9,0,0,100,30.24,30.14,17,8,20,0.00
2013-1-22,55.0,50.8,45.0,-99.9,-99.9,-99.9,0,0,100,30.39,30.22,23,12,26,0.00
2013-1-23,62.0,56.3,52.0,-99.9,-99.9,-99.9,0,0,100,30.43,30.33,9,5,12,0.00
2013-1-24,63.0,60.7,58.0,-99.9,-99.9,-99.9,0,0,100,30.37,30.27,12,7,15,0.00
2013-1-25,66.0,60.8,57.0,-99.9,-99.9,-99.9,0,0,100,30.33,30.19,13,-2,14,0.00
2013-1-26,68.0,62.2,59.0,-99.9,-99.9,-99.9,0,0,100,30.28,30.21,9,-36,13,0.00
2013-1-27,64.0,60.2,55.0,-99.9,-99.9,-99.9,0,0,100,30.34,30.27,13,8,14,0.00
2013-1-28,66.0,63.2,57.0,-99.9,-99.9,-99.9,0,0,100,30.31,30.17,19,-10,21,0.00
2013-1-29,68.0,66.3,65.0,-99.9,-99.9,-99.9,0,0,100,30.17,29.89,23,15,26,0.00
2013-1-30,71.0,62.5,48.0,-99.9,-99.9,-99.9,0,0,100,30.14,29.73,35,22,44,0.00
2013-1-31,55.0,52.3,45.0,-99.9,-99.9,-99.9,0,0,100,30.34,30.26,20,9,23,0.00
2013-2-1,57.0,53.4,49.0,-99.9,-99.9,-99.9,0,0,100,30.42,30.33,23,15,26,0.00
2013-2-2,60.0,53.6,46.0,-99.9,-99.9,-99.9,0,0,100,30.38,30.21,19,-2,21,0.00
2013-2-3,61.0,57.2,53.0,-99.9,-99.9,-99.9,0,0,100,30.29,30.14,16,8,20,0.00
2013-2-4,61.0,56.7,53.0,-99.9,-99.9,-99.9,0,0,100,30.15,30.01,15,9,17,0.00
2013-2-5,64.0,59.7,56.0,-99.9,-99.9,-99.9,0,0,100,30.06,29.97,20,11,26,0.00
2013-2-6,64.0,58.8,54.0,-99.9,-99.9,-99.9,0,0,100,30.17,30.04,20,9,22,0.00
2013-2-7,70.0,63.1,59.0,-99.9,-99.9,-99.9,0,0,100,30.04,29.80,36,13,53,0.00
2013-2-8,65.0,60.8,56.0,-99.9,-99.9,-99.9,0,0,100,30.17,29.97,27,-34,32,0.00
2013-2-9,63.0,57.0,50.0,-99.9,-99.9,-99.9,0,0,100,30.27,30.13,23,16,28,0.00
2013-2-10,68.0,65.0,63.0,-99.9,-99.9,-99.9,0,0,100,30.14,29.98,26,17,29,0.00
2013-2-11,67.0,63.0,58.0,-99.9,-99.9,-99.9,0,0,100,30.12,30.03,28,12,36,0.00
2013-2-12,69.0,63.0,58.0,-99.9,-99.9,-99.9,0,0,100,30.07,29.80,26,15,30,0.00
2013-2-13,66.0,56.3,49.0,-99.9,-99.9,-99.9,0,0,100,30.09,29.81,23,14,27,0.00
2013-2-14,56.0,50.5,46.0,-99.9,-99.9,-99.9,0,0,100,30.20,30.06,19,11,23,0.00
2013-2-15,59.0,54.8,52.0,-99.9,-99.9,-99.9,0,0,100,30.19,30.08,22,8,27,0.00
2013-2-16,54.0,49.6,45.0,-99.9,-99.9,-99.9,0,0,100,30.32,30.11,31,22,38,0.00
2013-2-17,54.0,46.0,40.0,-99.9,-99.9,-99.9,0,0,100,30.42,30.31,19,10,21,0.00
2013-2-18,63.0,58.3,54.0,-99.9,-99.9,-99.9,0,0,100,30.32,30.05,32,21,38,0.00
2013-2-19,65.0,60.1,54.0,-99.9,-99.9,-99.9,0,0,100,30.23,30.01,30,14,34,0.00
2013-2-20,54.0,49.7,45.0,-99.9,-99.9,-99.9,0,0,100,30.29,30.10,31,-57,35,0.00
2013-2-21,64.0,58.6,52.0,-99.9,-99.9,-99.9,0,0,100,30.09,29.90,24,17,28,0.00
2013-2-22,65.0,61.1,58.0,-99.9,-99.9,-99.9,0,0,100,30.00,29.88,18,-20,23,0.00
2013-2-23,67.0,57.6,55.0,-99.9,-99.9,-99.9,0,0,100,29.98,29.80,22,-2,26,0.00
2013-2-24,61.0,57.0,52.0,-99.9,-99.9,-99.9,0,0,100,30.01,29.82,27,12,30,0.00
2013-2-25,67.0,61.9,59.0,-99.9,-99.9,-99.9,0,0,100,29.85,29.55,31,21,38,0.00
2013-2-26,65.0,56.6,52.0,-99.9,-99.9,-99.9,0,0,100,29.95,29.57,21,14,31,0.00
2013-2-27,60.0,56.7,52.0,-99.9,-99.9,-99.9,0,0,100,30.06,29.94,14,-5,20,0.00
2013-2-28,60.0,52.8,49.0,-99.9,-99.9,-99.9,0,0,100,30.12,30.00,22,16,24,0.00
2013-3-1,56.0,50.0,46.0,-99.9,-99.9,-99.9,0,0,100,30.18,30.03,28,12,35,0.00
2013-3-2,46.0,42.2,39.0,-99.9,-99.9,-99.9,0,0,100,30.24,30.11,28,19,33,0.00
2013-3-3,51.0,42.1,35.0,-99.9,-99.9,-99.9,0,0,100,30.27,30.17,24,12,30,0.00
2013-3-4,60.0,55.1,48.0,-99.9,-99.9,-99.9,0,0,100,30.21,30.02,19,-11,20,0.00
2013-3-5,65.0,61.4,54.0,-99.9,-99.9,-99.9,0,0,100,30.18,29.98,27,11,31,0.00
2013-3-6,58.0,51.4,44.0,-99.9,-99.9,-99.9,0,0,100,30.30,30.17,26,17,30,0.00
2013-3-7,53.0,48.8,44.0,-99.9,-99.9,-99.9,0,0,100,30.37,30.25,23,11,26,0.00
2013-3-8,60.0,55.3,52.0,-99.9,-99.9,-99.9,0,0,100,30.33,30.21,13,-28,15,0.00
2013-3-9,63.0,59.7,55.0,-99.9,-99.9,-99.9,0,0,100,30.24,30.05,27,-6,30,0.00
2013-3-10,66.0,64.6,63.0,-99.9,-99.9,-99.9,0,0,100,30.08,29.96,27,22,31,0.00
2013-3-11,67.0,59.3,52.0,-99.9,-99.9,-99.9,0,0,100,30.00,29.87,27,16,32,0.00
2013-3-12,61.0,53.5,47.0,-99.9,-99.9,-99.9,0,0,100,30.21,30.00,28,17,32,0.00
2013-3-13,64.0,57.3,51.0,-99.9,-99.9,-99.9,0,0,100,30.38,30.21,21,13,25,0.00
2013-3-14,59.0,51.8,44.0,-99.9,-99.9,-99.9,0,0,100,30.47,30.33,29,14,34,0.00
2013-3-15,64.0,59.9,54.0,-99.9,-99.9,-99.9,0,0,100,30.34,30.18,13,-14,17,0.00
2013-3-16,67.0,64.0,61.0,-99.9,-99.9,-99.9,0,0,100,30.19,30.03,11,6,15,0.00
2013-3-17,67.0,64.1,62.0,-99.9,-99.9,-99.9,0,0,100,30.04,29.93,18,8,20,0.00
2013-3-18,68.0,66.1,64.0,-99.9,-99.9,-99.9,0,0,100,29.94,29.83,18,10,19,0.00
2013-3-19,72.0,64.1,59.0,-99.9,-99.9,-99.9,0,0,100,30.06,29.89,29,-44,33,0.00
2013-3-20,66.0,61.0,58.0,-99.9,-99.9,-99.9,0,0,100,30.13,29.98,30,17,34,0.00
2013-3-21,60.0,55.7,51.0,-99.9,-99.9,-99.9,0,0,100,30.10,29.93,29,14,33,0.00
2013-3-22,65.0,62.7,57.0,-99.9,-99.9,-99.9,0,0,100,29.94,29.85,28,20,32,0.00
2013-3-23,69.0,65.8,63.0,-99.9,-99.9,-99.9,0,0,100,29.89,29.63,26,14,30,0.00
2013-3-24,72.0,66.8,53.0,-99.9,-99.9,-99.9,0,0,100,29.95,29.60,31,16,38,0.00
2013-3-25,58.0,49.8,41.0,-99.9,-99.9,-99.9,0,0,100,30.24,29.96,31,22,37,0.00
2013-3-26,54.0,47.4,41.0,-99.9,-99.9,-99.9,0,0,100,30.39,30.24,29,11,35,0.00
2013-3-27,53.0,47.8,44.0,-99.9,-99.9,-99.9,0,0,100,30.47,30.32,23,12,25,0.00
2013-3-28,60.0,55.2,51.0,-99.9,-99.9,-99.9,0,0,100,30.40,30.28,15,8,17,0.00
2013-3-29,63.0,58.9,56.0,-99.9,-99.9,-99.9,0,0,100,30.37,30.24,10,6,12,0.00
2013-3-30,67.0,64.1,61.0,-99.9,-99.9,-99.9,0,0,100,30.24,30.09,11,6,13,0.00
2013-3-31,70.0,66.5,63.0,-99.9,-99.9,-99.9,0,0,100,30.10,29.94,14,-16,28,0.00
2013-4-1,68.0,63.8,58.0,-99.9,-99.9,-99.9,0,0,100,30.09,29.94,19,10,22,0.00
2013-4-2,69.0,65.6,62.0,-99.9,-99.9,-99.9,0,0,100,30.15,30.03,14,-13,15,0.00
2013-4-3,68.0,62.4,57.0,-99.9,-99.9,-99.9,0,0,100,30.10,29.79,43,20,49,0.00
2013-4-4,65.0,61.0,57.0,-99.9,-99.9,-99.9,0,0,100,29.99,29.89,25,12,27,0.00
2013-4-5,64.0,56.9,51.0,-99.9,-99.9,-99.9,0,0,100,30.14,29.96,25,18,30,0.00
2013-4-6,66.0,62.1,59.0,-99.9,-99.9,-99.9,0,0,100,30.21,30.12,13,8,15,0.00
2013-4-7,68.0,65.2,61.0,-99.9,-99.9,-99.9,0,0,100,30.17,30.06,14,9,15,0.00
2013-4-8,71.0,69.0,65.0,-99.9,-99.9,-99.9,0,0,100,30.10,30.00,22,13,26,0.00
2013-4-9,73.0,70.8,69.0,-99.9,-99.9,-99.9,0,0,100,30.11,29.98,23,19,30,0.00
2013-4-10,73.0,71.0,70.0,-99.9,-99.9,-99.9,0,0,100,30.07,29.91,26,19,29,0.00
2013-4-11,74.0,70.5,62.0,-99.9,-99.9,-99.9,0,0,100,29.91,29.63,27,17,31,0.00
2013-4-12,71.0,62.6,53.0,-99.9,-99.9,-99.9,0,0,100,30.00,29.80,27,16,30,0.00
2013-4-13,70.0,67.2,65.0,-99.9,-99.9,-99.9,0,0,100,30.08,29.92,17,12,20,0.00
2013-4-14,70.0,67.3,59.0,-99.9,-99.9,-99.9,0,0,100,29.98,29.72,39,18,45,0.00
2013-4-15,72.0,69.9,68.0,-99.9,-99.9,-99.9,0,0,100,30.06,29.84,19,5,22,0.00
2013-4-16,73.0,71.4,70.0,-99.9,-99.9,-99.9,0,0,100,30.15,30.03,20,12,21,0.00
2013-4-17,73.0,71.9,71.0,-99.9,-99.9,-99.9,0,0,100,30.14,30.03,22,15,27,0.00
2013-4-18,74.0,72.4,71.0,-99.9,-99.9,-99.9,0,0,100,30.04,29.90,23,16,28,0.00
2013-4-19,74.0,60.4,51.0,-99.9,-99.9,-99.9,0,0,100,30.19,29.84,33,18,39,0.00
2013-4-20,66.0,58.8,53.0,-99.9,-99.9,-99.9,0,0,100,30.28,30.15,28,18,33,0.00
2013-4-21,67.0,63.4,59.0,-99.9,-99.9,-99.9,0,0,100,30.23,30.14,20,13,23,0.00
2013-4-22,69.0,66.5,63.0,-99.9,-99.9,-99.9,0,0,100,30.16,30.07,21,16,23,0.00
2013-4-23,69.0,68.9,68.0,-99.9,-99.9,-99.9,0,0,100,30.15,30.07,21,17,23,0.00
2013-4-24,71.0,69.8,69.0,-99.9,-99.9,-99.9,0,0,100,30.17,30.04,25,-4,30,0.00
2013-4-25,71.0,65.2,59.0,-99.9,-99.9,-99.9,0,0,100,30.30,30.15,27,18,30,0.00
2013-4-26,71.0,67.6,63.0,-99.9,-99.9,-99.9,0,0,100,30.32,30.24,21,14,23,0.00
2013-4-27,72.0,70.5,67.0,-99.9,-99.9,-99.9,0,0,100,30.24,30.08,17,2,20,0.00
2013-4-28,74.0,71.7,70.0,-99.9,-99.9,-99.9,0,0,100,30.12,29.99,16,-13,18,0.00
2013-4-29,75.0,72.4,69.0,-99.9,-99.9,-99.9,0,0,100,30.02,29.92,15,-13,16,0.00
2013-4-30,73.0,72.8,72.0,-99.9,-99.9,-99.9,0,0,100,29.98,29.91,22,16,26,0.00
2013-5-1,73.0,72.0,64.0,-99.9,-99.9,-99.9,0,0,100,29.97,29.86,38,25,45,0.00
2013-5-2,72.0,68.2,64.0,-99.9,-99.9,-99.9,0,0,100,30.00,29.89,32,18,37,0.00
2013-5-3,71.0,66.7,53.0,-99.9,-99.9,-99.9,0,0,100,29.97,29.84,32,18,40,0.00
2013-5-4,67.0,59.2,50.0,-99.9,-99.9,-99.9,0,0,100,30.00,29.90,42,22,47,0.00
2013-5-5,68.0,64.1,57.0,-99.9,-99.9,-99.9,0,0,100,30.04,29.89,24,16,30,0.00
2013-5-6,68.0,63.0,56.0,-99.9,-99.9,-99.9,0,0,100,30.05,29.96,21,13,25,0.00
2013-5-7,71.0,67.4,63.0,-99.9,-99.9,-99.9,0,0,100,30.08,29.99,15,9,19,0.00
2013-5-8,74.0,69.8,65.0,-99.9,-99.9,-99.9,0,0,100,30.16,30.03,12,-29,16,0.00
2013-5-9,74.0,72.0,70.0,-99.9,-99.9,-99.9,0,0,100,30.19,30.08,16,8,18,0.00
2013-5-10,74.0,70.6,69.0,-99.9,-99.9,-99.9,0,0,100,30.18,29.95,29,5,37,0.00
2013-5-11,71.0,68.8,67.0,-99.9,-99.9,-99.9,0,0,100,30.09,29.96,16,7,18,0.00
2013-5-12,74.0,70.5,67.0,-99.9,-99.9,-99.9,0,0,100,30.14,30.02,24,12,26,0.00
2013-5-13,74.0,67.7,62.0,-99.9,-99.9,-99.9,0,0,100,30.30,30.13,25,14,28,0.00
2013-5-14,74.0,70.3,66.0,-99.9,-99.9,-99.9,0,0,100,30.33,30.20,12,-8,14,0.00
2013-5-15,76.0,72.3,69.0,-99.9,-99.9,-99.9,0,0,100,30.25,30.07,15,8,16,0.00
2013-5-16,74.0,69.3,72.0,-99.9,-99.9,-99.9,0,0,100,30.09,30.01,19,13,21,0.00
2013-5-17,76.0,73.6,73.0,-99.9,-99.9,-99.9,0,0,100,30.10,30.01,19,13,20,0.00
2013-5-18,78.0,75.5,74.0,-99.9,-99.9,-99.9,0,0,100,30.13,30.04,15,10,19,0.00
2013-5-19,77.0,75.7,74.0,-99.9,-99.9,-99.9,0,0,100,30.08,30.02,13,10,15,0.00
2013-5-20,78.0,76.3,75.0,-99.9,-99.9,-99.9,0,0,100,30.09,30.01,15,11,17,0.00
2013-5-21,78.0,76.6,75.0,-99.9,-99.9,-99.9,0,0,100,30.04,29.92,17,12,19,0.00
2013-5-22,79.0,76.8,70.0,-99.9,-99.9,-99.9,0,0,100,30.07,29.92,37,8,40,0.00
2013-5-23,83.0,78.6,76.0,-99.9,-99.9,-99.9,0,0,100,30.08,29.97,12,6,15,0.00
2013-5-24,83.0,80.2,77.0,-99.9,-99.9,-99.9,0,0,100,30.18,30.05,23,13,26,0.00
2013-5-25,79.0,75.1,70.0,-99.9,-99.9,-99.9,0,0,100,30.27,30.15,26,14,30,0.00
2013-5-26,78.0,76.4,73.0,-99.9,-99.9,-99.9,0,0,100,30.24,30.15,17,-18,19,0.00
2013-5-27,78.0,77.3,77.0,-99.9,-99.9,-99.9,0,0,100,30.20,30.10,19,14,21,0.00
2013-5-28,78.0,76.6,74.0,-99.9,-99.9,-99.9,0,0,100,30.13,30.06,21,14,24,0.00
2013-5-29,78.0,77.6,76.0,-99.9,-99.9,-99.9,0,0,100,30.09,30.03,26,20,30,0.00
2013-5-30,79.0,78.0,77.0,-99.9,-99.9,-99.9,0,0,100,30.09,30.01,28,23,34,0.00
2013-5-31,79.0,78.1,77.0,-99.9,-99.9,-99.9,0,0,100,30.08,30.00,24,20,27,0.00
2013-6-1,79.0,78.4,77.0,-99.9,-99.9,-99.9,0,0,100,30.05,29.98,22,16,25,0.00
2013-6-2,82.0,78.7,76.0,-99.9,-99.9,-99.9,0,0,100,30.02,29.91,20,9,22,0.00
2013-6-3,82.0,80.2,77.0,-99.9,-99.9,-99.9,0,0,100,29.96,29.88,15,-14,16,0.00
2013-6-4,81.0,80.4,79.0,-99.9,-99.9,-99.9,0,0,100,29.98,29.92,23,12,26,0.00
2013-6-5,81.0,79.8,75.0,-99.9,-99.9,-99.9,0,0,100,29.98,29.87,34,15,43,0.00
2013-6-6,84.0,77.6,74.0,-99.9,-99.9,-99.9,0,0,100,29.93,29.76,29,14,32,0.00
2013-6-7,82.0,77.4,73.0,-99.9,-99.9,-99.9,0,0,100,29.93,29.79,16,8,19,0.00
2013-6-8,83.0,80.7,71.0,-99.9,-99.9,-99.9,0,0,100,30.06,29.91,25,9,32,0.00
2013-6-9,80.0,75.8,71.0,-99.9,-99.9,-99.9,0,0,100,30.08,29.96,33,15,36,0.00
2013-6-10,81.0,78.7,72.0,-99.9,-99.9,-99.9,0,0,100,30.10,29.99,29,10,39,0.00
2013-6-11,85.0,81.8,79.0,-99.9,-99.9,-99.9,0,0,100,30.13,30.05,11,6,14,0.00
2013-6-12,86.0,83.1,80.0,-99.9,-99.9,-99.9,0,0,100,30.13,30.04,11,7,14,0.00
2013-6-13,86.0,83.6,81.0,-99.9,-99.9,-99.9,0,0,100,30.08,29.91,15,10,20,0.00
2013-6-14,88.0,84.0,80.0,-99.9,-99.9,-99.9,0,0,100,29.97,29.88,21,13,27,0.00
2013-6-15,84.0,82.0,80.0,-99.9,-99.9,-99.9,0,0,100,30.05,29.95,19,12,22,0.00
2013-6-16,87.0,83.7,82.0,-99.9,-99.9,-99.9,0,0,100,30.08,30.01,14,8,19,0.00
2013-6-17,87.0,84.3,82.0,-99.9,-99.9,-99.9,0,0,100,30.06,29.99,14,9,18,0.00
2013-6-18,86.0,83.7,80.0,-99.9,-99.9,-99.9,0,0,100,30.04,29.94,19,12,25,0.00
2013-6-19,84.0,81.3,74.0,-99.9,-99.9,-99.9,0,0,100,30.06,29.96,25,-24,27,0.00
2013-6-20,85.0,81.4,76.0,-99.9,-99.9,-99.9,0,0,100,30.13,30.03,16,6,22,0.00
2013-6-22,83.0,82.3,81.0,-99.9,-99.9,-99.9,0,0,100,30.15,30.03,15,11,18,0.00
2013-6-23,83.0,82.3,80.0,-99.9,-99.9,-99.9,0,0,100,30.12,30.05,14,9,19,0.00
2013-6-24,85.0,82.3,75.0,-99.9,-99.9,-99.9,0,0,100,30.19,30.11,17,-12,21,0.00
2013-6-25,85.0,83.7,82.0,-99.9,-99.9,-99.9,0,0,100,30.16,30.07,12,7,14,0.00
2013-6-26,85.0,83.7,82.0,-99.9,-99.9,-99.9,0,0,100,30.11,30.01,13,8,17,0.00
2013-6-27,88.0,84.9,82.0,-99.9,-99.9,-99.9,0,0,100,30.05,29.95,13,8,16,0.00
2013-6-28,89.0,85.9,83.0,-99.9,-99.9,-99.9,0,0,100,29.96,29.80,16,11,23,0.00
2013-6-29,85.0,82.9,78.0,-99.9,-99.9,-99.9,0,0,100,29.83,29.72,19,9,32,0.00
2013-6-30,88.0,82.5,78.0,-99.9,-99.9,-99.9,0,0,100,29.80,29.72,16,6,17,0.00
2013-7-1,85.0,81.4,77.0,-99.9,-99.9,-99.9,0,0,100,29.93,29.79,17,10,18,0.00
2013-7-2,85.0,82.2,80.0,-99.9,-99.9,-99.9,0,0,100,30.03,29.91,13,8,15,0.00
2013-7-3,83.0,80.4,74.0,-99.9,-99.9,-99.9,0,0,100,30.05,29.97,27,13,29,0.00
2013-7-4,82.0,78.9,74.0,-99.9,-99.9,-99.9,0,0,100,30.03,29.94,26,14,29,0.00
2013-7-5,81.0,77.4,74.0,-99.9,-99.9,-99.9,0,0,100,30.12,30.01,27,15,31,0.00
2013-7-6,80.0,77.7,72.0,-99.9,-99.9,-99.9,0,0,100,30.09,30.01,27,14,30,0.00
2013-7-7,81.0,78.8,74.0,-99.9,-99.9,-99.9,0,0,100,30.15,30.05,17,7,20,0.00
2013-7-8,81.0,78.0,77.0,-99.9,-99.9,-99.9,0,0,100,30.21,30.12,17,6,19,0.00
2013-7-9,83.0,81.0,78.0,-99.9,-99.9,-99.9,0,0,100,30.23,30.12,9,-30,13,0.00
2013-7-10,85.0,80.5,80.0,-99.9,-99.9,-99.9,0,0,100,30.14,30.01,13,6,19,0.00
2013-7-11,83.0,78.4,74.0,-99.9,-99.9,-99.9,0,0,100,30.05,29.92,16,7,22,0.00
2013-7-12,84.0,79.7,76.0,-99.9,-99.9,-99.9,0,0,100,29.95,29.88,17,8,19,0.00
2013-7-13,84.0,81.0,75.0,-99.9,-99.9,-99.9,0,0,100,30.00,29.89,30,-10,36,0.00
2013-7-14,85.0,79.7,74.0,-99.9,-99.9,-99.9,0,0,100,30.06,29.94,24,-8,27,0.00
2013-7-15,83.0,81.1,78.0,-99.9,-99.9,-99.9,0,0,100,30.14,30.05,22,14,25,0.00
2013-7-16,83.0,79.9,73.0,-99.9,-99.9,-99.9,0,0,100,30.20,30.10,32,19,36,0.00
2013-7-17,84.0,81.3,78.0,-99.9,-99.9,-99.9,0,0,100,30.24,30.14,16,11,19,0.00
2013-7-18,83.0,81.4,79.0,-99.9,-99.9,-99.9,0,0,100,30.17,30.05,15,9,18,0.00
2013-7-19,82.0,80.7,77.0,-99.9,-99.9,-99.9,0,0,100,30.11,29.98,22,4,26,0.00
2013-7-20,85.0,82.3,79.0,-99.9,-99.9,-99.9,0,0,100,30.04,29.96,15,-1,21,0.00
2013-7-21,85.0,80.9,76.0,-99.9,-99.9,-99.9,0,0,100,30.12,30.02,16,9,32,0.00
2013-7-22,85.0,80.6,74.0,-99.9,-99.9,-99.9,0,0,100,30.11,30.04,29,-8,37,0.00
2013-7-23,86.0,83.4,80.0,-99.9,-99.9,-99.9,0,0,100,30.09,29.96,17,11,22,0.00
2013-7-24,87.0,83.4,79.0,-99.9,-99.9,-99.9,0,0,100,30.00,29.92,19,11,28,0.00
2013-7-25,87.0,81.7,76.0,-99.9,-99.9,-99.9,0,0,100,30.04,29.90,19,10,22,0.00
2013-7-26,87.0,83.8,81.0,-99.9,-99.9,-99.9,0,0,100,30.09,30.00,15,7,16,0.00
2013-7-27,85.0,81.0,74.0,-99.9,-99.9,-99.9,0,0,100,30.03,29.91,20,8,26,0.00
2013-7-28,84.0,81.5,77.0,-99.9,-99.9,-99.9,0,0,100,30.03,29.89,21,10,25,0.00
2013-7-29,86.0,82.6,79.0,-99.9,-99.9,-99.9,0,0,100,30.15,30.01,10,5,11,0.00
2013-7-30,86.0,83.4,83.0,-99.9,-99.9,-99.9,0,0,100,30.19,30.09,11,6,14,0.00
2013-7-31,87.0,84.0,81.0,-99.9,-99.9,-99.9,0,0,100,30.14,30.02,17,6,17,0.00
2013-8-1,88.0,82.9,77.0,-99.9,-99.9,-99.9,0,0,100,30.05,29.95,27,8,40,0.00
2013-8-2,86.0,83.0,80.0,-99.9,-99.9,-99.9,0,0,100,30.06,29.94,11,-19,12,0.00
2013-8-3,88.0,85.3,83.0,-99.9,-99.9,-99.9,0,0,100,30.10,30.01,9,6,12,0.00
2013-8-4,90.0,85.7,79.0,-99.9,-99.9,-99.9,0,0,100,30.11,30.00,41,9,50,0.00
2013-8-5,88.0,84.6,81.0,-99.9,-99.9,-99.9,0,0,100,30.08,29.99,27,-72,29,0.00
2013-8-6,89.0,84.6,82.0,-99.9,-99.9,-99.9,0,0,100,30.04,29.94,23,-34,26,0.00
2013-8-7,87.0,84.2,80.0,-99.9,-99.9,-99.9,0,0,100,30.03,29.94,15,6,17,0.00
2013-8-8,87.0,85.2,83.0,-99.9,-99.9,-99.9,0,0,100,30.01,29.94,19,0,21,0.00
2013-8-9,86.0,84.8,80.0,-99.9,-99.9,-99.9,0,0,100,30.08,29.96,22,15,28,0.00
2013-8-10,86.0,84.3,82.0,-99.9,-99.9,-99.9,0,0,100,30.14,30.04,17,11,20,0.00
2013-8-11,85.0,84.2,83.0,-99.9,-99.9,-99.9,0,0,100,30.16,30.10,20,11,22,0.00
2013-8-31,84.0,68.5,79.0,-99.9,-99.9,-99.9,0,0,100,30.01,29.91,19,8,22,0.00
2013-9-1,87.0,84.6,82.0,-99.9,-99.9,-99.9,0,0,100,29.97,29.91,8,7,12,0.00
2013-9-2,86.0,83.9,83.0,-99.9,-99.9,-99.9,0,0,100,30.03,29.93,10,6,13,0.00
2013-9-3,86.0,83.2,81.0,-99.9,-99.9,-99.9,0,0,100,29.98,29.93,23,10,26,0.00
2013-9-4,85.0,83.0,81.0,-99.9,-99.9,-99.9,0,0,100,30.10,29.99,9,6,11,0.00
2013-9-5,85.0,83.8,83.0,-99.9,-99.9,-99.9,0,0,100,30.15,30.07,8,-120,9,0.00
2013-9-6,87.0,84.6,82.0,-99.9,-99.9,-99.9,0,0,100,30.13,30.03,10,5,11,0.00
2014-1-1,57.0,51.4,47.0,-99.9,-99.9,-99.9,0,0,100,30.35,30.07,16,10,21,0.00
2014-1-2,57.0,51.0,40.0,-99.9,-99.9,-99.9,0,0,100,30.32,30.01,31,18,37,0.00